User: anonymous   Login
Location: Unspecified
(0.0000°N, 0.0000°E)
Time: 06:47:05
(UTC+00:00)
Language:

FORMOSAT 3A - Orbit

View from above orbital plane
View from above orbital plane
View from above satellite
View from above satellite

Ground track
Ground track

The orbit data is extracted from the following two-line orbital elements,

1 29047U 06011A   17087.94047373 +.00000131 +00000-0 +68000-4 0  9993
2 29047 071.9813 350.9243 0052033 289.7352 069.8176 14.28569048573298
Epoch (UTC): 28 March 2017 22:34:16
Eccentricity: 0.0052033
inclination: 71.9813°
perigee height: 759 km
apogee height: 834 km
right ascension of ascending node: 350.9243°
argument of perigee: 289.7352°
revolutions per day: 14.28569048
mean anomaly at epoch: 69.8176°
orbit number at epoch: 57329

The dashed part of the orbit path shows where the satellite is in the earth's shadow,  

DLR